www.pogodaiklimat.ru

Погода и климат >> Архив погоды >> Китай >> Shisan Jianfang


ПОГОДА в Shisan Jianfang

  • Прогноз погоды в Shisan Jianfang
  • Монитор погоды в Shisan Jianfang
  • Климат города

АРХИВ ПОГОДЫ в Shisan Jianfang

Время (UTC), дата Ветер
(напр.,м/с)
 
Видим.   Явления Облачность Т
(С)
Тd
(С)
f
(%)
Тe
(С)
Тes
(С)
Комфортность P
(гПа)
Po
(гПа)
Тmin
(С)
Tmax
(С)
R
(мм)
R24
(мм)
S
(см)
00 18.05 С 15
{23}
30 км 9/9
[]
+21.6 +4.7 33 +22 +22 комфорт 1003.8 1004.0
03 18.05 С 15
{23}
30 км 9/9
[]
+21.6 +4.7 33 +22 +22 комфорт 1003.8 1004.0
06 18.05 С 17
{23}
24 км 9/9
[]
+25.1 +1.9 22 +24 +24 комфорт 1003.8 1004.0
09 18.05 С 8
{20}
30 км 9/9
[]
+32.9 +1.9 14 +30 +30 жарко 998.3 998.0
12 18.05 С 13 30 км 9/9
[]
+29.9 +3.0 18 +28 +28 жарко 998.5 999.0
18 18.05 С 14
{19}
30 км ?/? +25.4 +2.8 23 +24 +24 комфорт 997.9 998.0 +33.4
21 18.05 СВ 18
{25}
30 км ?/? +24.1 +2.9 25 +23 +23 комфорт 999.1 999.0
00 19.05 С 20
{26}
30 км 9/9
[]
+20.8 +1.6 28 +20 +20 1001.4 1001.0
03 19.05 С 23
{29}
30 км 9/9
[]
+21.8 +3.9 31 +22 +22 комфорт 1003.5 1004.0
06 19.05 С 23
{33}
30 км 9/9
[]
+22.7 +4.3 30 +23 +23 комфорт 1004.3 1005.0 +20.2
09 19.05 С 21
{33}
30 км 5/5
[]
+20.2 +5.8 39 +19 +19 1006.0 1006.0
12 19.05 С 24
{34}
30 км 9/9 1500 м
[]
+16.0 +4.4 46 +13 +13 1008.9 1009.0
18 19.05 С 21
{35}
30 км ?/? +14.8 +2.7 44 +11 +11 1011.5 1012.0 +25.4
21 19.05 С 15
{30}
30 км ?/? +12.9 +3.8 54 +9 +9 1015.3 1015.0
00 20.05 СВ 19
{29}
30 км 9/9
[]
+13.0 +0.1 41 +9 +9 1016.6 1016.3 2
03 20.05 С 17
{28}
30 км 8/8
[]
+17.9 -6.7 18 +16 +16 1015.8 1016.0
06 20.05 С 17
{28}
30 км 3/3
[]
+22.0 -7.7 13 +20 +20 1014.3 1014.0 +11.8
09 20.05 С 15
{26}
30 км 1/1
[]
+23.7 -7.4 12 +22 +22 комфорт 1012.9 1013.0
12 20.05 С 12
{25}
30 км 8/8
[]
+22.3 -8.5 12 +20 +20 1013.2 1013.0
18 20.05 С 12
{20}
30 км ?/? +17.8 -6.1 19 +16 +16 1014.8 1015.0 +23.8
21 20.05 С 10
{20}
30 км ?/? +15.8 -6.5 21 +14 +14 1014.5 1015.0
00 21.05 С 11
{18}
30 км 9/9 1500 м
[]
+16.6 -6.4 20 +15 +15 1015.3 1015.0
03 21.05 СВ 12
{19}
30 км 3/3 1500 м
[]
+21.4 -6.3 15 +20 +20 1014.4 1014.0
06 21.05 С 3
{19}
30 км 1/1 1500 м
[]
+25.3 -6.2 12 +22 +36 комфорт 1012.3 1012.0 +15.5
09 21.05 СЗ 5 30 км 6/6 1500 м
[]
+28.0 -6.4 10 +25 +27 комфорт 1010.2 1010.0
12 21.05 З 5 30 км 3/3 1500 м
[]
+27.1 -7.1 10 +24 +24 комфорт 1009.7 1010.0
18 21.05 СВ 6 30 км ?/? +18.7 -7.6 16 +18 +18 1010.5 1011.0 +28.1
21 21.05 С 6 30 км ?/? +17.1 -6.7 19 +16 +16 1010.3 1010.0
00 22.05 С 3 30 км 9/9 1500 м
[]
+19.3 -8.0 15 +19 +19 1010.9 1011.0
03 22.05 В 4 30 км 9/9 1500 м
[]
+26.2 -6.6 11 +23 +24 комфорт 1010.7 1011.0
06 22.05 Ю 8 30 км 9/9 1500 м
[]
+29.9 -7.9 8 +26 +26 жарко 1009.1 1009.0 +16.6
09 22.05 С 15
{24}
30 км 9/9 1500 м
[]
+26.9 -2.8 14 +24 +24 комфорт 1008.9 1009.0
12 22.05 С 18
{24}
30 км 9/9
[]
+21.8 -0.8 22 +21 +21 комфорт 1009.4 1009.0
18 22.05 С 12
{24}
30 км ?/? +22.2 -1.8 20 +21 +21 комфорт 1008.6 1009.0 +30.7
21 22.05 С 14
{24}
30 км ?/? +21.3 -0.1 24 +21 +21 комфорт 1009.3 1009.0
00 23.05 С 11
{20}
30 км 9/9 1500 м
[]
+21.5 +1.7 27 +21 +21 комфорт 1012.4 1012.0
03 23.05 С 4
{18}
30 км 9/9 1500 м
[]
+27.0 -1.8 15 +25 +25 комфорт 1013.0 1013.0
06 23.05 Ю 5 30 км 9/9
[]
+31.0 -7.1 8 +27 +28 жарко 1011.3 1011.8 +20.7
09 23.05 ЮЗ 4 30 км 4/4
[]
+32.7 -5.8 8 +29 +33 жарко 1009.5 1010.0
12 23.05 СВ 7 29 км 9/9
[]
+32.0 -4.8 9 +28 +28 жарко 1009.3 1009.0
18 23.05 СВ 7 30 км ?/? +25.0 +2.4 23 +24 +24 комфорт 1011.0 931.9 +33.4
21 23.05 СВ 4 23 км ?/? +23.1 -6.8 13 +21 +21 комфорт 1011.3 1011.0
00 24.05 С 4 30 км ясно +23.6 -5.4 14 +22 +23 комфорт 1012.5 1013.0
03 24.05 Ю 4 30 км ясно +28.9 -8.6 8 +25 +33 комфорт 1013.0 1013.0
06 24.05 Ю 4 30 км 3/3
[]
+33.4 -9.0 6 +29 +38 жарко 1011.4 1011.7 +21.0
09 24.05 З 4 30 км 8/8
[]
+34.3 -8.4 6 +30 +31 жарко 1009.7 1010.0
12 24.05 Ю 3 30 км 4/4
[]
+33.2 -9.2 6 +29 +29 жарко 1009.0 1009.0
18 24.05 С 5 30 км ?/? +22.9 -8.0 12 +21 +21 комфорт 1009.3 1009.0 +34.8

 

Местоположение метеостанции Shisan Jianfang (Китай): широта 43.22 долгота 91.73 высота над уровнем моря 792 м.

В архиве по умолчанию представлена погода в Shisan Jianfang за последнюю неделю. Архивные данные за месяц целиком и за предыдущие месяцы, начиная с января 2011 года, Вы можете получить, выбрав интересующий диапазон дат из раскрывающегося списка и нажав кнопку "Ввод!".

Внимание! Время в таблицах - всемирное. Для получения местного времени необходимо прибавить поправку, которая в Shisan Jianfang равна 8 ч.

Смотрите также архив погоды в соседних городах и на ближайших метеорологических станциях:

Погода в Hami (Китай) (152 км)
Погода в Qitai (Китай) (195 км)
Погода в Turpan (Китай) (208 км)
Погода в Beita Shan (Китай) (258 км)
Погода в Naomaohu (Китай) (278 км)
Погода в Baitag (Монголия) (323 км)
Погода в Urumqi (Китай) (335 км)
Погода в Tonhil (Монголия) (385 км)
Погода в Jargalant (Монголия) (415 км)
Погода в Dunhuang (Китай) (420 км)

Пояснения к столбцам:

Ветер - указаны скорость ветра в м/с - средняя за 10 мин, порывы в срок и между сроками (в фигурных скобках) и направление, откуда дует ветер: С - северный, СВ - северо-восточный, В - восточный, ЮВ - юго-восточный, Ю - южный, ЮЗ - юго-западный, З - западный, СЗ - северо-западный.
Видимость - горизонтальная дальность видимости в метрах или километрах. При видимости от 1 до 10 км при отсутствии осадков обычно наблюдается дымка, при ухудшении видимости до 1 км и менее - туман. В сухую погоду видимость может ухудшаться дымом, пылью или мглою.
Явления - указаны атмосферные явления, наблюдавшиеся в срок или в последний час перед сроком; фигурными скобками обозначены явления, наблюдавшиеся между сроками (за 1-3 часа до срока); квадратными скобками обозначены град или гололедные отложения с указанием их диаметра в мм.
Облачность - указаны через наклонную черту общая и нижняя облачность в баллах и высота нижней границы облаков в метрах; квадратными скобками обозначены формы облаков: Ci - перистые, Cs - перисто-слоистые, Cc - перисто-кучевые, Ac - высококучевые, As - высокослоистые, Sc - слоисто-кучевые, Ns - слоисто-дождевые, Cu - кучевые, Cb - кучево-дождевые. Подробнее классификацию облаков см. в Атласе облаков (PDF).
T - Температура воздуха - температура, измеренная на высоте 2 м над землей.
Td - Температура точки росы - температура, при понижении до которой содержащийся в воздухе водяной пар достигнет насыщения.
f - Относительная влажность воздуха - влажноcть воздуха, измеренная на высоте 2 м над землей.
Te - Эффективная температура - температура, которую ощущает одетый по сезону человек в тени. Характеристика душности погоды. При расчете учитывается влияние влажности воздуха и скорости ветра на теплоощущения человека.
Tes - Эффективная температура на солнце - температура, которую ощущает человек, с поправкой на солнечный нагрев. Характеристика знойности погоды. Зависит от высоты солнца над горизонтом, облачности и скорости ветра. Ночью, в пасмурную погоду, а также при ветре 12 м/с и более поправка равна нулю.
P - Атмосферное давление - приведенное к уровню моря атмосферное давление.
Po - Атмосферное давление - измеренное на уровне метеостанции атмосферное давление.
Tmin - Минимальная температура - минимум температуры воздуха на высоте 2 м над землей.
Tmax - Максимальная температура - максимум температуры воздуха на высоте 2 м над землей.
R - Количество осадков - Количество выпавших осадков за период времени, мм. При наведении курсора мыши на число - период времени, за который выпало указанное количество осадков.
R24 - Количество осадков - Количество выпавших осадков за 24 часа, мм.
S - Снежный покров - Высота снежного покрова, см. При наведении курсора мыши на число - состояние снежного покрова и степень покрытия местности в баллах.